STARLINK-34593

Last updated on Fri Aug 08 2025 00:02:05 GMT+0000 (Coordinated Universal Time)

1 64758U 25147D 25218.87659452 .00088014 00000+0 16125-2 0 9990 2 64758 53.1601 163.3279 0002711 168.9020 191.2049 15.48595507 5826
UTC large
Height (km)
Speed (km/s)
/
Latitude / Longitude
Inclination (degrees)
Orbital Period (minutes)
Azimuth
Elevation
Range (km)
Doppler Factor

Next 0 passes for location: London (51.5072 / 0.1276)

Sorry there are no passes over London.